Hourly Weather Roundup
Issued by NWS Central Illinois

Home | Current Version | Previous Version | Text Only | Print | Product List | Glossary On
Versions: 1 2 3 4 5 6 7 8 9 10 11 12 13 14 15 16 17 18 19 20 21 22 23 24 25 26 27 28 29 30 31 32 33 34 35 36 37 38 39 40 41 42 43 44 45 46 47 48 49 50
000
NZUS43 KILX 291610
HWRILX

AREA WEATHER ROUNDUP
NATIONAL WEATHER SERVICE, LINCOLN IL
1100 AM CDT SAT AUG 29 2015


CITY           SKY/WX    TMP DP  RH WIND       PRES   REMARKS
BLOOMINGTON    CLOUDY    75  68  79 SW10      30.05S
CHAMPAIGN      CLOUDY    77  66  68 S6        30.06R
DANVILLE       CLOUDY    73  67  83 SE3       30.06R
DECATUR        CLOUDY    75  65  70 SW9       30.05R
EFFINGHAM      CLOUDY    78  64  61 S5        30.08S HX  80
FLORA          PTSUNNY   76  67  72 S9        30.07S
GALESBURG      CLOUDY    71  65  81 SW3       30.01S
JACKSONVILLE   PTSUNNY   76  68  76 S8        30.02S
LACON          MOSUNNY   73  64  73 SW7       30.01R
LAWRENCEVILLE  PTSUNNY   80  68  66 S10       30.09R HX  83
LITCHFIELD     CLOUDY    75  64  68 S8        30.04S
$$


CITY           SKY/WX    TMP DP  RH WIND       PRES   REMARKS
LINCOLN        CLOUDY    75  67  75 S6        30.03S
MACOMB         PTSUNNY   74  65  73 SW5       30.03R
MATTOON        CLOUDY    76  65  68 S7        30.06R
MT CARMEL AP   CLOUDY    77  68  73 S9        30.09R
OLNEY-NOBLE AP CLOUDY    77  68  73 S9        30.08S
PARIS          CLOUDY    78  68  71 S9        30.08R HX  80
PEORIA         PTSUNNY   78  65  63 SW9       30.02R HX  80
PONTIAC        CLOUDY    73  67  81 S10       30.04S
RANTOUL        CLOUDY    75  68  77 SE5       30.06S
ROBINSON       PTSUNNY   79  68  70 S7        30.09R HX  81
SPRINGFIELD    CLOUDY    77  66  68 S10       30.02S
TAYLORVILLE    CLOUDY    73  68  83 S5        30.04S
$$

...REGIONAL REPORTS...


CITY           SKY/WX    TMP DP  RH WIND       PRES   REMARKS
CHICAGO O`HARE CLOUDY    67  64  90 E6        30.04R
KANKAKEE       CLOUDY    69  66  91 SW3       30.07R
MOLINE         CLOUDY    70  65  84 CALM      30.01R
MOUNT STERLING MOSUNNY   75  65  70 SW9       30.00S
MOUNT VERNON   CLOUDY    79  66  65 S9        30.08S HX  81
PITTSFIELD     MOSUNNY   78  65  65 SW9       30.02S HX  80
QUINCY         SUNNY     77  65  66 SW10      30.00S
ROCKFORD       CLOUDY    66  62  87 SE5       30.04S
$$


CITY           SKY/WX    TMP DP  RH WIND       PRES   REMARKS
BURLINGTON     CLOUDY    74  66  76 CALM      30.00R
CEDAR RAPIDS   CLOUDY    72  68  87 NE10      30.00S FOG
DES MOINES     CLOUDY    67  62  84 NE7       30.03R
KIRKSVILLE     CLOUDY    72  65  78 SW5       30.02R
OTTUMWA        CLOUDY    70  69  97 NW7       30.00R FOG
ST LOUIS       CLOUDY    80  64  58 SW9       30.03F HX  82
$$


CITY           SKY/WX    TMP DP  RH WIND       PRES   REMARKS
TERRE HAUTE    CLOUDY    78  66  66 S8        30.08S HX  80
EVANSVILLE     CLOUDY    81  70  69 S9        30.10S HX  84
INDIANAPOLIS   CLOUDY    77  65  66 SW9       30.09S
LAFAYETTE      CLOUDY    75  64  68 S5        30.08R
MADISON        DRIZZLE   64  62  93 SE6       30.03S FOG
MILWAUKEE      CLOUDY    63  60  90 SE10      30.05S
$$




USA.gov is the U.S. government's official web portal to all federal, state and local government web resources and services.